Date,TemperatureHighF,TemperatureAvgF,TemperatureLowF,DewpointHighF,DewpointAvgF,DewpointLowF,HumidityHigh,HumidityAvg,HumidityLow,PressureMaxIn,PressureMinIn,WindSpeedMaxMPH,WindSpeedAvgMPH,GustSpeedMaxMPH,PrecipitationSumIn
2013-8-1,87.8,67.0,46.4,52.2,47.4,42.0,87,54,22,29.97,29.81,4,1,0,0.44
2013-8-2,82.4,64.8,55.4,59.4,54.4,49.3,90,71,39,29.97,29.87,6,1,0,0.01
2013-8-3,82.4,64.7,57.2,60.7,57.0,53.9,98,79,41,30.20,29.94,5,1,0,0.34
2013-8-4,82.4,64.9,50.0,58.8,53.3,44.7,98,71,28,30.02,29.91,4,1,0,0.01
2013-8-5,89.6,67.5,50.0,54.9,48.3,38.5,98,58,17,29.96,29.84,4,1,0,0.00
2013-8-6,86.0,65.7,53.6,55.6,50.0,46.2,80,60,28,29.95,29.86,3,0,0,0.00
2013-8-7,86.0,68.1,50.0,54.9,49.2,42.4,98,58,23,29.94,29.84,4,1,0,0.00
2013-8-8,91.4,69.3,51.8,54.1,49.6,43.3,88,55,19,29.97,29.87,5,1,0,0.00
2013-8-9,91.4,70.8,53.6,54.8,49.7,37.2,85,53,15,29.95,29.81,5,1,0,0.00
2013-8-10,93.2,72.3,51.8,53.1,47.1,33.6,86,48,13,29.91,29.81,5,1,0,0.00
2013-8-11,89.6,65.5,51.8,60.2,52.9,46.5,98,69,26,29.93,29.84,4,1,0,0.30
2013-8-12,86.0,66.2,50.0,57.8,50.1,38.5,98,64,20,29.96,29.86,7,1,0,0.82
2013-8-13,84.2,67.1,50.0,52.8,44.9,36.1,85,50,18,30.01,29.88,5,1,0,0.00
2013-8-14,86.0,65.7,46.4,47.7,40.1,29.4,85,47,13,29.91,29.79,8,1,0,0.80
2013-8-15,80.6,66.1,53.6,57.5,49.7,41.4,89,59,28,29.86,29.79,6,1,0,0.08
2013-8-16,77.0,64.2,51.8,53.8,49.7,45.7,90,62,38,29.88,29.82,5,1,0,0.01
2013-8-17,71.6,60.2,53.6,60.5,54.8,48.1,98,83,59,29.89,29.84,6,1,0,1.10
2013-8-18,73.4,58.1,48.2,53.0,48.1,40.9,98,73,34,29.90,29.82,10,1,0,0.00
2013-8-19,77.0,58.9,50.0,53.1,42.9,33.7,80,58,24,29.95,29.82,5,1,0,0.00
2013-8-20,69.8,53.6,41.0,43.6,37.6,33.6,85,58,29,30.09,29.95,6,1,0,0.00
2013-8-21,78.8,56.6,35.6,44.1,38.5,32.7,98,58,19,30.13,29.96,5,1,0,0.00
2013-8-22,87.8,65.1,44.6,48.1,41.7,34.6,84,49,17,29.96,29.73,4,1,0,0.00
2013-8-23,80.6,61.8,46.4,54.0,47.1,42.1,88,62,31,29.75,29.61,6,1,0,0.00
2013-8-24,73.4,61.2,51.8,52.7,45.8,40.0,80,59,31,29.74,29.64,5,1,0,0.00
2013-8-25,77.0,60.0,46.4,45.9,40.6,36.4,77,51,25,29.85,29.73,6,1,0,0.00
2013-8-26,75.2,60.5,50.0,50.9,44.9,40.0,81,59,34,29.77,29.70,7,2,0,0.00
2013-8-27,71.6,61.0,51.8,47.3,43.2,37.0,74,54,34,29.84,29.75,6,2,0,0.00
2013-8-28,71.6,58.4,50.0,60.2,53.1,40.2,98,84,49,29.87,29.76,6,0,0,0.47
2013-8-29,66.2,58.1,51.8,60.2,54.3,51.3,98,88,67,29.87,29.78,4,1,0,0.09
2013-8-30,73.4,58.0,48.2,53.0,48.8,44.4,98,74,39,30.06,29.81,4,1,0,0.14
2013-8-31,77.0,58.3,42.8,51.2,46.7,42.3,98,70,36,30.08,29.89,5,1,0,0.00